カタログに戻る

DELTA 1 DEB

運用中PO
NORAD 21347·DEBRIS·🇺🇸 United States

打ち上げ Jun 12, 1975 から Vandenberg Space Force Base

Loading…

次のパス (今後24時間)

TLE

最新Source: Space-Track

元期: Sep 14, 2026, 08:22 UTC

1 21347U 75052BR  26257.34888177 -.00001716  00000-0 -22624-2 0  9999
2 21347  99.4070  27.0085 0393609  81.4171 307.6304 13.32032074676458

AllMySatでDELTA 1 DEBをリアルタイム追跡

Download on the App Store